When you browse on this site, cookies collect data to enhance your experience and personalize the content and advertising you see.
Visit our Privacy Policy to learn more. By continuing to use the site, you agree to this use of cookies and data.
  • In Hungary
  • List of Countries
  • For 7 days
  • Water Temperature
  • Weather Map
  • News
  • Weather Widgets
  • user-avatar
    Login

    Hourly Weather Nesteriha

    Today, 20 January, Monday

    Time Temperature Precipitation Wind Pressure Humidity
    00:00 0°C° 0 mm 5 mps 751 mmHg 89%
    01:00 0°C° 0 mm 4 mps 751 mmHg 87%
    02:00 0°C° 0 mm 4 mps 751 mmHg 86%
    03:00 0°C° 0.1 mm 4 mps 751 mmHg 88%
    04:00 0°C° 0.1 mm 4 mps 751 mmHg 91%
    05:00 -1°C° 0.1 mm 4 mps 751 mmHg 93%
    06:00 -1°C° 0.1 mm 4 mps 751 mmHg 94%
    07:00 -1°C° 0.1 mm 4 mps 751 mmHg 95%
    08:00 -1°C° 0.1 mm 4 mps 751 mmHg 96%
    09:00 -1°C° 0.1 mm 5 mps 751 mmHg 94%
    10:00 -1°C° 0.1 mm 5 mps 751 mmHg 92%
    11:00 -1°C° 0.1 mm 5 mps 751 mmHg 90%
    12:00 -1°C° 0 mm 5 mps 751 mmHg 91%
    13:00 -1°C° 0 mm 5 mps 751 mmHg 93%
    14:00 -1°C° 0 mm 5 mps 751 mmHg 94%
    15:00 -1°C° 0 mm 5 mps 751 mmHg 94%
    16:00 -1°C° 0 mm 4 mps 750 mmHg 95%
    17:00 -1°C° 0 mm 4 mps 750 mmHg 95%
    18:00 -1°C° 0 mm 4 mps 750 mmHg 91%
    19:00 -1°C° 0 mm 5 mps 749 mmHg 87%
    20:00 -1°C° 0 mm 5 mps 749 mmHg 83%
    21:00 -1°C° 0 mm 5 mps 748 mmHg 83%
    22:00 -1°C° 0 mm 5 mps 747 mmHg 82%
    23:00 -2°C° 0 mm 5 mps 747 mmHg 82%

    Tomorrow, 21 January, Tuesday

    Time Temperature Precipitation Wind Pressure Humidity
    00:00 -2°C° 0 mm 5 mps 746 mmHg 86%
    01:00 -2°C° 0 mm 5 mps 746 mmHg 89%
    02:00 -2°C° 0 mm 5 mps 745 mmHg 92%
    03:00 -2°C° 0.4 mm 6 mps 744 mmHg 91%
    04:00 -2°C° 0.4 mm 6 mps 743 mmHg 90%
    05:00 -1°C° 0.4 mm 6 mps 741 mmHg 89%
    06:00 -1°C° 0.2 mm 6 mps 741 mmHg 88%
    07:00 +1°C° 0.2 mm 6 mps 740 mmHg 88%
    08:00 +1°C° 0.2 mm 5 mps 739 mmHg 88%
    09:00 +2°C° 0 mm 6 mps 739 mmHg 87%
    10:00 +2°C° 0 mm 6 mps 738 mmHg 87%
    11:00 +3°C° 0 mm 6 mps 738 mmHg 87%
    12:00 +3°C° 0.1 mm 5 mps 737 mmHg 87%
    13:00 +3°C° 0.1 mm 5 mps 737 mmHg 87%
    14:00 +3°C° 0.1 mm 5 mps 736 mmHg 88%
    15:00 +3°C° 0.6 mm 5 mps 735 mmHg 90%
    16:00 +4°C° 0.6 mm 4 mps 734 mmHg 92%
    17:00 +4°C° 0.6 mm 4 mps 733 mmHg 94%
    18:00 +2°C° 0.4 mm 5 mps 733 mmHg 89%
    19:00 +2°C° 0.4 mm 6 mps 733 mmHg 85%
    20:00 0°C° 0.4 mm 7 mps 733 mmHg 80%
    21:00 -1°C° 0 mm 6 mps 733 mmHg 78%
    22:00 -2°C° 0 mm 6 mps 734 mmHg 76%
    23:00 -3°C° 0 mm 6 mps 734 mmHg 73%

    Day after tomorrow, 22 January, Wednesday

    Time Temperature Precipitation Wind Pressure Humidity
    00:00 -3°C° 0 mm 6 mps 734 mmHg 74%
    01:00 -2°C° 0 mm 5 mps 734 mmHg 74%
    02:00 -4°C° 0 mm 5 mps 734 mmHg 74%
    03:00 -4°C° 0 mm 5 mps 733 mmHg 76%
    04:00 -4°C° 0 mm 5 mps 732 mmHg 78%
    05:00 -4°C° 0 mm 5 mps 732 mmHg 80%
    06:00 -4°C° 0.1 mm 6 mps 731 mmHg 80%
    07:00 -4°C° 0.1 mm 6 mps 731 mmHg 81%
    08:00 -4°C° 0.1 mm 6 mps 730 mmHg 82%
    09:00 -4°C° 0.2 mm 6 mps 730 mmHg 77%
    10:00 -3°C° 0.2 mm 6 mps 730 mmHg 72%
    11:00 -3°C° 0.2 mm 6 mps 730 mmHg 68%
    12:00 -3°C° 0 mm 6 mps 730 mmHg 68%
    13:00 -4°C° 0 mm 6 mps 730 mmHg 68%
    14:00 -4°C° 0 mm 6 mps 729 mmHg 68%
    15:00 -4°C° 0 mm 6 mps 730 mmHg 71%
    16:00 -4°C° 0 mm 6 mps 730 mmHg 73%
    17:00 -5°C° 0 mm 6 mps 730 mmHg 75%
    18:00 -5°C° 0.1 mm 6 mps 731 mmHg 78%
    19:00 -5°C° 0.1 mm 6 mps 731 mmHg 80%
    20:00 -5°C° 0.1 mm 6 mps 732 mmHg 82%
    21:00 -6°C° 0.1 mm 6 mps 732 mmHg 80%
    22:00 -6°C° 0.1 mm 6 mps 733 mmHg 78%
    23:00 -8°C° 0.1 mm 6 mps 734 mmHg 76%

    23 January, Thursday

    Time Temperature Precipitation Wind Pressure Humidity
    00:00 -8°C° 0 mm 6 mps 735 mmHg 73%
    01:00 -9°C° 0 mm 6 mps 735 mmHg 69%
    02:00 -9°C° 0 mm 6 mps 736 mmHg 66%
    03:00 -9°C° 0 mm 6 mps 737 mmHg 64%
    04:00 -9°C° 0 mm 6 mps 737 mmHg 61%
    05:00 -9°C° 0 mm 6 mps 737 mmHg 59%
    06:00 -10°C° 0 mm 5 mps 738 mmHg 63%
    07:00 -10°C° 0 mm 5 mps 738 mmHg 68%
    08:00 -9°C° 0 mm 4 mps 739 mmHg 72%
    09:00 -8°C° 0.1 mm 5 mps 739 mmHg 68%
    10:00 -8°C° 0.1 mm 5 mps 740 mmHg 64%
    11:00 -9°C° 0.1 mm 6 mps 741 mmHg 60%
    12:00 -8°C° 0 mm 5 mps 741 mmHg 59%
    13:00 -8°C° 0 mm 5 mps 742 mmHg 59%
    14:00 -8°C° 0 mm 5 mps 742 mmHg 58%
    15:00 -9°C° 0 mm 4 mps 743 mmHg 61%
    16:00 -9°C° 0 mm 4 mps 743 mmHg 64%
    17:00 -8°C° 0 mm 3 mps 744 mmHg 67%
    18:00 -9°C° 0 mm 3 mps 744 mmHg 70%
    19:00 -9°C° 0 mm 3 mps 744 mmHg 72%
    20:00 -8°C° 0 mm 2 mps 744 mmHg 74%
    21:00 -8°C° 0 mm 2 mps 744 mmHg 71%
    22:00 -7°C° 0 mm 2 mps 744 mmHg 67%
    23:00 -7°C° 0 mm 2 mps 744 mmHg 64%

    24 January, Friday

    Time Temperature Precipitation Wind Pressure Humidity
    00:00 -8°C° 0 mm 3 mps 743 mmHg 68%
    01:00 -7°C° 0 mm 3 mps 742 mmHg 73%
    02:00 -7°C° 0 mm 3 mps 742 mmHg 78%
    03:00 -7°C° 0.3 mm 4 mps 741 mmHg 83%
    04:00 -7°C° 0.3 mm 4 mps 740 mmHg 87%
    05:00 -5°C° 0.3 mm 4 mps 739 mmHg 92%
    06:00 -5°C° 0.3 mm 4 mps 739 mmHg 93%
    07:00 -4°C° 0.3 mm 4 mps 738 mmHg 94%
    08:00 -4°C° 0.3 mm 4 mps 738 mmHg 95%
    09:00 -3°C° 0.1 mm 4 mps 737 mmHg 94%
    10:00 -2°C° 0.1 mm 4 mps 737 mmHg 94%
    11:00 -1°C° 0.1 mm 4 mps 737 mmHg 94%
    12:00 0°C° 0 mm 4 mps 736 mmHg 94%
    13:00 0°C° 0 mm 4 mps 736 mmHg 94%
    14:00 +1°C° 0 mm 3 mps 735 mmHg 94%
    15:00 +1°C° 0.2 mm 4 mps 735 mmHg 94%
    16:00 +1°C° 0.2 mm 4 mps 735 mmHg 95%
    17:00 +1°C° 0.2 mm 4 mps 735 mmHg 95%
    18:00 +1°C° 0.4 mm 4 mps 735 mmHg 96%
    19:00 +1°C° 0.4 mm 4 mps 734 mmHg 96%
    20:00 +1°C° 0.4 mm 4 mps 734 mmHg 97%
    21:00 +1°C° 0.2 mm 4 mps 734 mmHg 97%
    22:00 +1°C° 0.2 mm 4 mps 734 mmHg 97%
    23:00 +1°C° 0.2 mm 3 mps 734 mmHg 97%

    25 January, Saturday

    Time Temperature Precipitation Wind Pressure Humidity
    00:00 +1°C° 0.5 mm 3 mps 734 mmHg 97%
    01:00 +1°C° 0.5 mm 3 mps 734 mmHg 97%
    02:00 +2°C° 0.5 mm 2 mps 735 mmHg 97%
    03:00 +2°C° 0.2 mm 2 mps 735 mmHg 98%
    04:00 +1°C° 0.2 mm 2 mps 735 mmHg 98%
    05:00 +1°C° 0.2 mm 2 mps 735 mmHg 98%
    06:00 +1°C° 0 mm 2 mps 735 mmHg 97%
    07:00 0°C° 0 mm 3 mps 735 mmHg 96%
    08:00 +1°C° 0 mm 3 mps 736 mmHg 95%
    09:00 +1°C° 0 mm 3 mps 736 mmHg 94%
    10:00 +1°C° 0 mm 3 mps 737 mmHg 93%
    11:00 +1°C° 0 mm 3 mps 737 mmHg 91%
    12:00 +1°C° 0.1 mm 3 mps 737 mmHg 92%
    13:00 +1°C° 0.1 mm 3 mps 737 mmHg 92%
    14:00 0°C° 0.1 mm 4 mps 737 mmHg 92%
    15:00 +1°C° 0 mm 3 mps 738 mmHg 91%
    16:00 0°C° 0 mm 3 mps 738 mmHg 91%
    17:00 -1°C° 0 mm 3 mps 738 mmHg 91%
    18:00 -1°C° 0 mm 3 mps 739 mmHg 91%
    19:00 -1°C° 0 mm 3 mps 739 mmHg 91%
    20:00 -2°C° 0 mm 3 mps 739 mmHg 92%
    21:00 -2°C° 0 mm 3 mps 740 mmHg 92%
    22:00 -2°C° 0 mm 3 mps 740 mmHg 93%
    23:00 -3°C° 0 mm 2 mps 740 mmHg 93%
    Show more